User: anonymous   Login
Location: Cañada de la Miga
(34.7595°N, 106.2317°W)
Time: 03:52:33
(UTC+00:00)
Language:

Altair - Orbit

View from above orbital plane
View from above orbital plane
View from above satellite
View from above satellite

Ground track
Ground track

The orbit data is extracted from the following two-line orbital elements,

1 00050U 60009B   21331.58747518 -.00000010  00000-0  72517-3 0  9992
2 00050  47.2314 282.1169 0113058  99.4793 261.8795 12.20117510734705
Epoch (UTC): 27 November 2021 14:05:57
Eccentricity: 0.0113058
inclination: 47.2314°
perigee height: 1502 km
apogee height: 1682 km
right ascension of ascending node: 282.1169°
argument of perigee: 99.4793°
revolutions per day: 12.20117510
mean anomaly at epoch: 261.8795°
orbit number at epoch: 73470

The dashed part of the orbit path shows where the satellite is in the earth's shadow,  

DLR